ARA225 LFMT-DAAT

Flight info

Callsign ARA225
Flight time 3h 7m
Altitude 35000
Route MARRI DCT SUBIL DCT JUSQO DCT KIFMI DCT KAMER UM998 TOLGA/N0458F370 UM998 BOD/N0461F360 UG855 HOGAR
Aircraft B737/M-SDE2E3FGHIRWXY/LB1

Departure

Time 2026-05-04 08:52
Airport Montpellier-Méditerranée Airport (LFMT)

Arrival

Time 2026-05-04 11:59
Airport Aguenar – Hadj Bey Akhamok Airport (DAAT)
Time Latitude Longitude Altitude Speed Heading
2026-05-04 08:44 43.57940 3.96094 23 ft 0 kts 256°
2026-05-04 08:46 43.57941 3.96094 23 ft 0 kts 256°
2026-05-04 08:47 43.57943 3.96087 22 ft 1 kts 294°
2026-05-04 08:47 43.57953 3.96082 23 ft 2 kts 356°
2026-05-04 08:47 43.57961 3.96105 22 ft 5 kts 80°
2026-05-04 08:47 43.57972 3.96180 21 ft 11 kts 68°
2026-05-04 08:48 43.58034 3.96259 21 ft 14 kts 62°
2026-05-04 08:48 43.57995 3.96395 20 ft 19 kts 124°
2026-05-04 08:48 43.57908 3.96571 17 ft 26 kts 124°
2026-05-04 08:48 43.57796 3.96797 16 ft 30 kts 126°
2026-05-04 08:49 43.57678 3.97025 18 ft 28 kts 125°
2026-05-04 08:50 43.57238 3.98161 16 ft 21 kts 29°
2026-05-04 08:50 43.57303 3.98165 16 ft 4 kts 321°
2026-05-04 08:51 43.57312 3.98149 16 ft 0 kts 304°
2026-05-04 08:51 43.57433 3.97911 16 ft 64 kts 305°
2026-05-04 08:51 43.57810 3.97162 19 ft 124 kts 305°
2026-05-04 08:51 43.58384 3.96044 252 ft 150 kts 311°
2026-05-04 08:52 43.58947 3.94798 820 ft 158 kts 314°
2026-05-04 08:52 43.59751 3.93633 1275 ft 173 kts 318°
2026-05-04 08:52 43.60766 3.92579 1723 ft 189 kts 336°
2026-05-04 08:52 43.62032 3.92207 2303 ft 190 kts 13°
2026-05-04 08:53 43.62878 3.92560 2565 ft 194 kts 38°
2026-05-04 08:54 43.63999 4.07163 5911 ft 261 kts 126°
2026-05-04 08:55 43.62936 4.09204 6759 ft 265 kts 131°
2026-05-04 08:55 43.61786 4.11229 7525 ft 270 kts 131°
2026-05-04 08:55 43.60622 4.13280 8317 ft 274 kts 131°
2026-05-04 08:55 43.59449 4.15384 9089 ft 279 kts 131°
2026-05-04 08:57 43.49798 4.33112 12123 ft 376 kts 135°
2026-05-04 09:01 43.16325 4.55758 20176 ft 414 kts 168°
2026-05-04 09:01 43.13570 4.56795 20644 ft 417 kts 168°
2026-05-04 09:01 43.10727 4.57864 21093 ft 420 kts 168°
2026-05-04 09:01 43.07893 4.58928 21537 ft 424 kts 168°
2026-05-04 09:02 43.05087 4.60039 21955 ft 429 kts 164°
2026-05-04 09:02 43.02332 4.61688 22381 ft 436 kts 156°
2026-05-04 09:02 42.99753 4.63932 22811 ft 444 kts 147°
2026-05-04 09:02 42.97301 4.66537 23232 ft 448 kts 146°
2026-05-04 09:03 42.94906 4.69135 23609 ft 451 kts 146°
2026-05-04 09:03 42.92420 4.71826 23927 ft 454 kts 146°
2026-05-04 09:03 42.89929 4.74494 24285 ft 456 kts 146°
2026-05-04 09:03 42.87426 4.77150 24639 ft 458 kts 147°
2026-05-04 09:04 42.84900 4.79814 24989 ft 459 kts 147°
2026-05-04 09:04 42.82362 4.82483 25319 ft 462 kts 147°
2026-05-04 09:04 42.79810 4.85163 25631 ft 464 kts 147°
2026-05-04 09:04 42.77246 4.87854 25941 ft 466 kts 147°
2026-05-04 09:05 42.74587 4.90356 26227 ft 464 kts 155°
2026-05-04 09:05 42.71699 4.92253 26522 ft 460 kts 163°
2026-05-04 09:05 42.68659 4.93540 26819 ft 456 kts 172°
2026-05-04 09:05 42.65547 4.94406 27118 ft 456 kts 173°
2026-05-04 09:06 42.62424 4.95231 27377 ft 458 kts 173°
2026-05-04 09:07 42.40703 5.01147 30202 ft 451 kts 173°
2026-05-04 09:08 42.37629 5.02000 30568 ft 450 kts 173°
2026-05-04 09:08 42.34561 5.02851 30900 ft 449 kts 174°
2026-05-04 09:08 42.31498 5.03698 31250 ft 449 kts 174°
2026-05-04 09:08 42.28442 5.04543 31608 ft 448 kts 174°
2026-05-04 09:09 42.25388 5.05386 31956 ft 447 kts 174°
2026-05-04 09:09 42.22381 5.06216 32287 ft 446 kts 174°
2026-05-04 09:09 42.19345 5.07052 32598 ft 445 kts 175°
2026-05-04 09:09 42.16311 5.07887 32903 ft 445 kts 175°
2026-05-04 09:10 42.13275 5.08721 33213 ft 444 kts 175°
2026-05-04 09:10 42.10253 5.09552 33499 ft 444 kts 175°
2026-05-04 09:10 42.07222 5.10383 33764 ft 443 kts 175°
2026-05-04 09:10 42.04199 5.11211 34033 ft 443 kts 175°
2026-05-04 09:11 42.01177 5.12039 34266 ft 443 kts 176°
2026-05-04 09:11 41.98159 5.12864 34471 ft 443 kts 176°
2026-05-04 09:11 41.95138 5.13689 34664 ft 443 kts 176°
2026-05-04 09:11 41.92116 5.14515 34879 ft 443 kts 176°
2026-05-04 09:12 41.89102 5.15337 35014 ft 443 kts 176°
2026-05-04 09:14 41.64991 5.21887 35027 ft 441 kts 176°
2026-05-04 09:14 41.58974 5.23513 35013 ft 441 kts 176°
2026-05-04 09:15 41.52951 5.25139 35017 ft 441 kts 176°
2026-05-04 09:15 41.46936 5.26758 35019 ft 442 kts 177°
2026-05-04 09:17 41.19762 5.34039 35020 ft 443 kts 177°
2026-05-04 09:18 41.13707 5.35654 35022 ft 443 kts 177°
2026-05-04 09:18 41.07659 5.37264 35018 ft 444 kts 177°
2026-05-04 09:19 41.01604 5.38876 35018 ft 444 kts 176°
2026-05-04 09:19 40.95568 5.40885 35025 ft 449 kts 173°
2026-05-04 09:20 40.89581 5.43082 35015 ft 449 kts 173°
2026-05-04 09:20 40.83555 5.45280 35026 ft 449 kts 173°
2026-05-04 09:21 40.77522 5.47443 35016 ft 449 kts 173°
2026-05-04 09:21 40.71483 5.49586 35024 ft 449 kts 174°
2026-05-04 09:22 40.65440 5.51724 35019 ft 450 kts 174°
2026-05-04 09:22 40.59387 5.53862 35023 ft 450 kts 174°
2026-05-04 09:23 40.53328 5.55999 35027 ft 451 kts 174°
2026-05-04 09:23 40.47267 5.58132 35026 ft 452 kts 174°
2026-05-04 09:25 40.22916 5.66667 35028 ft 454 kts 174°
2026-05-04 09:26 40.16809 5.68797 35039 ft 454 kts 174°
2026-05-04 09:26 40.10698 5.70924 35034 ft 455 kts 174°
2026-05-04 09:27 40.04578 5.73051 35033 ft 455 kts 174°
2026-05-04 09:27 39.98460 5.75173 35037 ft 455 kts 174°
2026-05-04 09:28 39.92324 5.77298 35037 ft 456 kts 174°
2026-05-04 09:28 39.86184 5.79419 35035 ft 456 kts 174°
2026-05-04 09:29 39.80046 5.81537 35034 ft 457 kts 174°
2026-05-04 09:29 39.73893 5.83655 35029 ft 457 kts 174°
2026-05-04 09:30 39.67743 5.85769 35034 ft 457 kts 174°
2026-05-04 09:30 39.61631 5.87866 35037 ft 457 kts 174°
2026-05-04 09:31 39.55479 5.89973 35041 ft 457 kts 174°
2026-05-04 09:31 39.49331 5.92074 35037 ft 457 kts 174°
2026-05-04 09:32 39.43192 5.94169 35043 ft 456 kts 174°
2026-05-04 09:34 39.18633 6.02509 35045 ft 456 kts 174°
2026-05-04 09:34 39.12490 6.04586 35040 ft 456 kts 173°
2026-05-04 09:35 39.06349 6.06660 35041 ft 456 kts 173°
2026-05-04 09:35 39.00240 6.08711 35038 ft 455 kts 174°
2026-05-04 09:37 38.75419 6.13677 35050 ft 453 kts 179°
2026-05-04 09:38 38.69181 6.14910 35046 ft 454 kts 178°
2026-05-04 09:38 38.64012 6.15932 35048 ft 454 kts 178°
2026-05-04 09:39 38.57754 6.17168 35047 ft 455 kts 178°
2026-05-04 09:39 38.51483 6.18403 35048 ft 456 kts 178°
2026-05-04 09:40 38.45204 6.19637 35053 ft 456 kts 178°
2026-05-04 09:40 38.38923 6.20869 35049 ft 457 kts 178°
2026-05-04 09:42 38.13776 6.25781 35051 ft 457 kts 178°
2026-05-04 09:43 38.07531 6.26995 35051 ft 457 kts 178°
2026-05-04 09:43 38.01247 6.28215 35052 ft 457 kts 178°
2026-05-04 09:44 37.94956 6.29433 35055 ft 457 kts 178°
2026-05-04 09:46 37.69798 6.34288 35059 ft 457 kts 178°
2026-05-04 09:46 37.63507 6.35496 35058 ft 457 kts 178°
2026-05-04 09:47 37.57212 6.36703 35058 ft 457 kts 178°
2026-05-04 09:49 37.32058 6.41506 35064 ft 458 kts 178°
2026-05-04 09:51 37.09954 6.45700 35056 ft 460 kts 178°
2026-05-04 09:51 37.03620 6.46897 35065 ft 460 kts 177°
2026-05-04 09:52 36.97280 6.48094 35068 ft 460 kts 178°
2026-05-04 09:52 36.90979 6.49281 35066 ft 461 kts 178°
2026-05-04 09:53 36.84630 6.50475 35075 ft 461 kts 178°
2026-05-04 09:53 36.78274 6.51669 35076 ft 462 kts 178°
2026-05-04 09:54 36.71915 6.52861 35077 ft 462 kts 178°
2026-05-04 09:54 36.65556 6.54051 35076 ft 462 kts 178°
2026-05-04 09:55 36.59241 6.55231 35107 ft 462 kts 178°
2026-05-04 09:55 36.52881 6.56417 35133 ft 462 kts 177°
2026-05-04 09:56 36.46517 6.57602 35152 ft 463 kts 177°
2026-05-04 09:56 36.40147 6.58786 35172 ft 464 kts 177°
2026-05-04 09:57 36.33756 6.59973 35184 ft 464 kts 177°
2026-05-04 09:57 36.27376 6.60991 35179 ft 459 kts 182°
2026-05-04 09:58 36.21008 6.61213 35176 ft 457 kts 185°
2026-05-04 09:58 36.14648 6.61300 35168 ft 457 kts 185°
2026-05-04 10:00 35.89228 6.61995 35138 ft 458 kts 184°
2026-05-04 10:04 35.44615 6.63315 35128 ft 458 kts 184°
2026-05-04 10:04 35.38231 6.63502 35138 ft 458 kts 184°
2026-05-04 10:05 35.31849 6.63689 35142 ft 459 kts 184°
2026-05-04 10:05 35.25509 6.63906 35147 ft 458 kts 184°
2026-05-04 10:06 35.19090 6.64075 35145 ft 458 kts 184°
2026-05-04 10:06 35.12708 6.64250 35155 ft 459 kts 184°
2026-05-04 10:08 34.90427 6.64898 35147 ft 457 kts 184°
2026-05-04 10:08 34.84057 6.65083 35155 ft 458 kts 184°
2026-05-04 10:09 34.77685 6.65267 35141 ft 458 kts 184°
2026-05-04 10:09 34.71300 6.65459 35140 ft 459 kts 184°
2026-05-04 10:10 34.64918 6.65652 35137 ft 459 kts 184°
2026-05-04 10:10 34.58528 6.65845 35133 ft 459 kts 184°
2026-05-04 10:11 34.52134 6.66038 35130 ft 459 kts 184°
2026-05-04 10:11 34.45785 6.66228 35126 ft 459 kts 184°
2026-05-04 10:12 34.39386 6.66419 35125 ft 460 kts 184°
2026-05-04 10:12 34.32996 6.66610 35126 ft 460 kts 184°
2026-05-04 10:13 34.26597 6.66801 35125 ft 460 kts 184°
2026-05-04 10:13 34.20203 6.66992 35122 ft 460 kts 184°
2026-05-04 10:14 34.13808 6.67182 35125 ft 460 kts 184°
2026-05-04 10:16 33.88279 6.67938 35121 ft 459 kts 184°
2026-05-04 10:16 33.81888 6.68127 35115 ft 459 kts 184°
2026-05-04 10:17 33.75491 6.68315 35123 ft 459 kts 184°
2026-05-04 10:19 33.49939 6.69065 35132 ft 460 kts 184°
2026-05-04 10:19 33.43534 6.69252 35128 ft 461 kts 184°
2026-05-04 10:20 33.37114 6.69440 35128 ft 461 kts 184°
2026-05-04 10:20 33.30691 6.69628 35124 ft 462 kts 184°
2026-05-04 10:21 33.24266 6.69815 35119 ft 462 kts 184°
2026-05-04 10:21 33.17829 6.70002 35118 ft 462 kts 184°
2026-05-04 10:22 33.08166 6.70283 35114 ft 463 kts 184°
2026-05-04 10:23 33.01770 6.70468 35105 ft 463 kts 184°
2026-05-04 10:25 32.75984 6.71213 35107 ft 463 kts 184°
2026-05-04 10:25 32.69531 6.71398 35104 ft 464 kts 184°
2026-05-04 10:26 32.63075 6.71584 35108 ft 464 kts 184°
2026-05-04 10:26 32.56665 6.71768 35104 ft 464 kts 184°
2026-05-04 10:27 32.50206 6.71952 35101 ft 464 kts 184°
2026-05-04 10:27 32.43744 6.72137 35100 ft 464 kts 184°
2026-05-04 10:28 32.38366 6.72291 35102 ft 464 kts 184°
2026-05-04 10:28 32.31904 6.72475 35102 ft 465 kts 184°
2026-05-04 10:29 32.25441 6.72660 35099 ft 465 kts 184°
2026-05-04 10:29 32.18974 6.72843 35100 ft 465 kts 184°
2026-05-04 10:30 32.12499 6.73027 35093 ft 465 kts 184°
2026-05-04 10:30 32.06030 6.73211 35094 ft 465 kts 184°
2026-05-04 10:31 31.99558 6.73394 35094 ft 465 kts 184°
2026-05-04 10:32 31.76958 6.74032 35080 ft 465 kts 184°
2026-05-04 10:33 31.70482 6.74214 35085 ft 465 kts 184°
2026-05-04 10:33 31.64007 6.74396 35083 ft 465 kts 184°
2026-05-04 10:34 31.57526 6.74578 35077 ft 465 kts 184°
2026-05-04 10:34 31.51044 6.74760 35073 ft 466 kts 184°
2026-05-04 10:35 31.44564 6.74941 35077 ft 466 kts 184°
2026-05-04 10:35 31.38076 6.75123 35079 ft 466 kts 184°
2026-05-04 10:36 31.31592 6.75304 35078 ft 466 kts 184°
2026-05-04 10:36 31.25143 6.75483 35070 ft 466 kts 184°
2026-05-04 10:37 31.18655 6.75664 35070 ft 466 kts 184°
2026-05-04 10:37 31.12162 6.75845 35071 ft 467 kts 184°
2026-05-04 10:39 30.89418 6.76475 35065 ft 467 kts 184°
2026-05-04 10:40 30.82952 6.76653 35065 ft 467 kts 184°
2026-05-04 10:40 30.76446 6.76833 35047 ft 467 kts 185°
2026-05-04 10:41 30.69962 6.77012 35054 ft 466 kts 185°
2026-05-04 10:41 30.63481 6.77191 35053 ft 465 kts 185°
2026-05-04 10:42 30.57009 6.77368 35055 ft 465 kts 185°
2026-05-04 10:42 30.50535 6.77546 35053 ft 465 kts 185°
2026-05-04 10:43 30.44061 6.77723 35059 ft 465 kts 185°
2026-05-04 10:45 30.18135 6.78431 35045 ft 468 kts 185°
2026-05-04 10:45 30.11614 6.78608 35042 ft 468 kts 185°
2026-05-04 10:46 30.05090 6.78786 35046 ft 469 kts 185°
2026-05-04 10:46 29.98555 6.78963 35048 ft 469 kts 185°
2026-05-04 10:47 29.92020 6.79141 35042 ft 470 kts 185°
2026-05-04 10:47 29.85509 6.79317 35040 ft 470 kts 185°
2026-05-04 10:49 29.59318 6.80024 35036 ft 471 kts 185°
2026-05-04 10:50 29.52757 6.80200 35038 ft 472 kts 185°
2026-05-04 10:52 29.26506 6.80904 35031 ft 473 kts 186°
2026-05-04 10:52 29.19916 6.81080 35023 ft 473 kts 186°
2026-05-04 10:54 28.93563 6.81783 35015 ft 474 kts 186°
2026-05-04 10:56 28.67127 6.82484 35011 ft 475 kts 186°
2026-05-04 10:57 28.60507 6.82659 35010 ft 476 kts 186°
2026-05-04 10:57 28.53879 6.82833 35007 ft 476 kts 186°
2026-05-04 10:58 28.47250 6.83008 35007 ft 476 kts 186°
2026-05-04 10:58 28.40658 6.83182 35008 ft 477 kts 186°
2026-05-04 10:59 28.34017 6.83356 35003 ft 477 kts 186°
2026-05-04 10:59 28.27377 6.83531 35006 ft 478 kts 186°
2026-05-04 11:00 28.20727 6.83705 34993 ft 478 kts 186°
2026-05-04 11:01 27.98322 6.79896 34988 ft 463 kts 201°
2026-05-04 11:02 27.95231 6.79037 34984 ft 464 kts 201°
2026-05-04 11:05 27.47917 6.66316 34963 ft 468 kts 201°
2026-05-04 11:06 27.41581 6.64623 34960 ft 468 kts 201°
2026-05-04 11:06 27.35228 6.62928 34955 ft 469 kts 201°
2026-05-04 11:10 26.90758 6.51116 34946 ft 471 kts 201°
2026-05-04 11:12 26.65210 6.44373 34923 ft 472 kts 201°
2026-05-04 11:12 26.58811 6.42689 34932 ft 472 kts 201°
2026-05-04 11:13 26.52406 6.41006 34934 ft 473 kts 201°
2026-05-04 11:13 26.46046 6.39336 34932 ft 473 kts 201°
2026-05-04 11:16 26.13937 6.30934 34935 ft 474 kts 201°
2026-05-04 11:16 26.08558 6.29531 34940 ft 474 kts 201°
2026-05-04 11:17 26.02133 6.27856 34948 ft 474 kts 201°
2026-05-04 11:19 25.76531 6.21287 34947 ft 473 kts 200°
2026-05-04 11:19 25.70116 6.19647 34948 ft 473 kts 200°
2026-05-04 11:20 25.63703 6.18009 34942 ft 473 kts 200°
2026-05-04 11:20 25.57284 6.16371 34936 ft 473 kts 200°
2026-05-04 11:22 25.31644 6.09847 34947 ft 474 kts 200°
2026-05-04 11:23 25.25220 6.08217 34945 ft 474 kts 200°
2026-05-04 11:25 25.02720 6.02521 34952 ft 474 kts 200°
2026-05-04 11:25 24.96340 6.00910 34947 ft 473 kts 200°
2026-05-04 11:27 24.67459 5.93639 34947 ft 473 kts 200°
2026-05-04 11:28 24.61039 5.92027 34944 ft 473 kts 200°
2026-05-04 11:28 24.54618 5.90416 34953 ft 473 kts 200°
2026-05-04 11:29 24.48185 5.88804 34956 ft 474 kts 200°
2026-05-04 11:29 24.41794 5.87205 34955 ft 474 kts 200°
2026-05-04 11:33 23.96501 5.75915 30333 ft 486 kts 198°
2026-05-04 11:33 23.93193 5.75093 29203 ft 489 kts 198°
2026-05-04 11:33 23.89868 5.74268 28044 ft 490 kts 198°
2026-05-04 11:34 23.86543 5.73443 26881 ft 491 kts 197°
2026-05-04 11:34 23.83206 5.72617 25743 ft 492 kts 197°
2026-05-04 11:34 23.79886 5.71797 24898 ft 486 kts 197°
2026-05-04 11:34 23.76606 5.70987 24026 ft 481 kts 196°
2026-05-04 11:35 23.73354 5.70184 23070 ft 476 kts 196°
2026-05-04 11:35 23.70187 5.69402 22242 ft 468 kts 196°
2026-05-04 11:35 23.67031 5.68623 21310 ft 462 kts 195°
2026-05-04 11:35 23.63929 5.67857 20467 ft 455 kts 195°
2026-05-04 11:36 23.60868 5.67101 19693 ft 447 kts 195°
2026-05-04 11:36 23.57843 5.66353 18865 ft 442 kts 195°
2026-05-04 11:36 23.54870 5.65619 17943 ft 437 kts 195°
2026-05-04 11:36 23.51934 5.64894 17150 ft 428 kts 195°
2026-05-04 11:37 23.49034 5.64178 16281 ft 424 kts 194°
2026-05-04 11:37 23.46175 5.63474 15394 ft 419 kts 194°
2026-05-04 11:37 23.43360 5.62781 14560 ft 414 kts 194°
2026-05-04 11:37 23.40580 5.62097 13777 ft 408 kts 194°
2026-05-04 11:38 23.37824 5.61418 12961 ft 401 kts 194°
2026-05-04 11:38 23.35098 5.60745 12095 ft 398 kts 194°
2026-05-04 11:38 23.32398 5.60080 11273 ft 396 kts 194°
2026-05-04 11:38 23.29767 5.59440 10976 ft 379 kts 194°
2026-05-04 11:39 23.27250 5.58823 10750 ft 362 kts 194°
2026-05-04 11:39 23.24847 5.58233 10607 ft 346 kts 195°
2026-05-04 11:40 23.12301 5.55154 9516 ft 283 kts 196°
2026-05-04 11:41 23.10341 5.54669 8993 ft 289 kts 196°
2026-05-04 11:41 23.08425 5.54196 8793 ft 282 kts 195°
2026-05-04 11:41 23.06534 5.53735 8621 ft 274 kts 195°
2026-05-04 11:41 23.04712 5.53290 8516 ft 263 kts 195°
2026-05-04 11:42 23.02962 5.52860 8386 ft 253 kts 196°
2026-05-04 11:42 23.01282 5.52446 8285 ft 244 kts 195°
2026-05-04 11:42 22.99630 5.52043 8007 ft 242 kts 197°
2026-05-04 11:42 22.98000 5.51640 7763 ft 240 kts 195°
2026-05-04 11:43 22.96382 5.51244 7512 ft 237 kts 196°
2026-05-04 11:43 22.94796 5.50846 7254 ft 232 kts 197°
2026-05-04 11:43 22.93257 5.50395 6960 ft 227 kts 204°
2026-05-04 11:43 22.91825 5.49795 6662 ft 214 kts 203°
2026-05-04 11:44 22.90496 5.49183 6340 ft 200 kts 211°
2026-05-04 11:44 22.89301 5.48515 6092 ft 184 kts 217°
2026-05-04 11:44 22.88205 5.48017 5987 ft 157 kts 205°
2026-05-04 11:44 22.87206 5.47702 5693 ft 149 kts 202°
2026-05-04 11:45 22.86286 5.47230 5588 ft 149 kts 209°
2026-05-04 11:45 22.85317 5.46742 5343 ft 157 kts 199°
2026-05-04 11:45 22.84246 5.46391 4971 ft 160 kts 198°
2026-05-04 11:45 22.83191 5.46039 4665 ft 162 kts 201°
2026-05-04 11:46 22.82101 5.45545 4606 ft 179 kts 206°
2026-05-04 11:46 22.80949 5.44943 5000 ft 194 kts 210°
2026-05-04 11:46 22.79791 5.44316 5145 ft 199 kts 206°
2026-05-04 11:46 22.78582 5.43500 4994 ft 211 kts 219°
2026-05-04 11:47 22.77345 5.42598 4788 ft 221 kts 215°
2026-05-04 11:47 22.76037 5.41832 4978 ft 204 kts 206°
2026-05-04 11:47 22.74738 5.41265 5399 ft 200 kts 207°
2026-05-04 11:47 22.73462 5.40521 5798 ft 216 kts 222°
2026-05-04 11:48 22.72717 5.39230 6792 ft 186 kts 249°
2026-05-04 11:48 22.71968 5.38212 7738 ft 182 kts 210°
2026-05-04 11:48 22.70696 5.38038 8225 ft 198 kts 174°
2026-05-04 11:48 22.69254 5.38322 8401 ft 225 kts 173°
2026-05-04 11:49 22.67642 5.38663 8616 ft 247 kts 172°
2026-05-04 11:49 22.65892 5.39021 8815 ft 266 kts 172°
2026-05-04 11:49 22.64013 5.39398 9012 ft 283 kts 172°
2026-05-04 11:49 22.62047 5.39835 9162 ft 293 kts 163°
2026-05-04 11:50 22.60363 5.41063 9298 ft 298 kts 131°
2026-05-04 11:50 22.59422 5.43085 9112 ft 311 kts 103°
2026-05-04 11:50 22.59175 5.45422 8841 ft 313 kts 90°
2026-05-04 11:50 22.59521 5.47728 8577 ft 307 kts 74°
2026-05-04 11:51 22.60132 5.49916 8320 ft 301 kts 72°
2026-05-04 11:51 22.60766 5.52054 8058 ft 296 kts 71°
2026-05-04 11:51 22.61399 5.54159 7796 ft 293 kts 71°
2026-05-04 11:51 22.62029 5.56244 7538 ft 290 kts 71°
2026-05-04 11:52 22.62656 5.58311 7276 ft 288 kts 71°
2026-05-04 11:52 22.63277 5.60365 7022 ft 288 kts 71°
2026-05-04 11:52 22.63882 5.62405 6889 ft 282 kts 72°
2026-05-04 11:52 22.64563 5.64383 6856 ft 283 kts 57°
2026-05-04 11:53 22.65921 5.65923 6891 ft 285 kts 36°
2026-05-04 11:53 22.67463 5.67274 6874 ft 290 kts 36°
2026-05-04 11:53 22.69044 5.68637 6862 ft 291 kts 36°
2026-05-04 11:53 22.70674 5.69915 6857 ft 289 kts 23°
2026-05-04 11:55 22.80546 5.62294 6928 ft 231 kts 312°
2026-05-04 11:55 22.81627 5.61116 6925 ft 211 kts 311°
2026-05-04 11:56 22.82522 5.59944 6938 ft 198 kts 295°
2026-05-04 11:56 22.82802 5.58545 6976 ft 189 kts 268°
2026-05-04 11:56 22.82677 5.57091 6637 ft 194 kts 262°
2026-05-04 11:56 22.82486 5.55666 6387 ft 189 kts 262°
2026-05-04 11:57 22.82308 5.54363 6338 ft 162 kts 264°
2026-05-04 11:57 22.82159 5.53252 6139 ft 138 kts 262°
2026-05-04 11:57 22.82026 5.52233 5821 ft 134 kts 263°
2026-05-04 11:57 22.81886 5.51222 5617 ft 140 kts 263°
2026-05-04 11:58 22.81763 5.50129 5442 ft 149 kts 263°
2026-05-04 11:58 22.81640 5.49043 5260 ft 142 kts 266°
2026-05-04 11:58 22.81509 5.48014 5008 ft 138 kts 263°
2026-05-04 11:58 22.81339 5.46971 4799 ft 144 kts 262°
2026-05-04 11:59 22.81222 5.45891 4597 ft 146 kts 261°
2026-05-04 11:59 22.81062 5.44802 4485 ft 140 kts 265°
2026-05-04 11:59 22.80950 5.43923 4482 ft 89 kts 263°
2026-05-04 11:59 22.80888 5.43486 4475 ft 34 kts 262°
2026-05-04 12:00 22.80856 5.43219 4473 ft 39 kts 270°
2026-05-04 12:00 22.80930 5.42948 4477 ft 21 kts 298°
2026-05-04 12:00 22.80991 5.43000 4473 ft 23 kts 80°
2026-05-04 12:00 22.81034 5.43306 4474 ft 55 kts 82°
2026-05-04 12:01 22.81100 5.43803 4477 ft 77 kts 82°
2026-05-04 12:01 22.81178 5.44379 4478 ft 75 kts 82°
2026-05-04 12:02 22.81284 5.44794 4484 ft 0 kts 121°
2026-05-04 12:14 22.81284 5.44793 4481 ft 0 kts 121°
2026-05-04 12:19 22.81285 5.44793 4481 ft 0 kts 121°
2026-05-04 12:26 22.81285 5.44792 4481 ft 0 kts 121°